Time,TemperatureF,DewpointF,PressureIn,WindDirection,WindDirectionDegrees,WindSpeedMPH,WindSpeedGustMPH,Humidity,HourlyPrecipIn,Conditions,Clouds,dailyrainin,SoftwareType,DateUTC
2013-04-23 00:02:00,22.0,18.0,30.37,NW,321,0.0,-999.0,85,-99.99,,,-99.99,,2013-04-23 05:02:00,
2013-04-23 00:12:00,22.0,18.0,30.37,NW,321,0.0,-999.0,85,-99.99,,,-99.99,,2013-04-23 05:12:00,
2013-04-23 00:22:00,22.0,18.0,30.37,NW,321,0.0,-999.0,85,-99.99,,,-99.99,,2013-04-23 05:22:00,
2013-04-23 00:32:00,23.0,19.0,30.37,NW,321,0.0,-999.0,85,-99.99,,,-99.99,,2013-04-23 05:32:00,
2013-04-23 00:42:00,23.0,19.0,30.37,NW,321,0.0,-999.0,85,-99.99,,,-99.99,,2013-04-23 05:42:00,
2013-04-23 00:52:00,23.0,18.0,30.36,NW,321,0.0,-999.0,82,-99.99,,,-99.99,,2013-04-23 05:52:00,
2013-04-23 01:01:00,23.0,18.0,30.36,NW,321,0.0,-999.0,82,-99.99,,,-99.99,,2013-04-23 06:01:00,
2013-04-23 01:12:00,23.0,18.0,30.36,NW,321,0.0,-999.0,82,-99.99,,,-99.99,,2013-04-23 06:12:00,
2013-04-23 01:21:00,24.0,19.0,30.36,NW,321,0.0,-999.0,81,-99.99,,,-99.99,,2013-04-23 06:21:00,
2013-04-23 01:33:00,24.0,18.0,30.35,NW,320,0.0,-999.0,79,-99.99,,,-99.99,,2013-04-23 06:33:00,
2013-04-23 01:42:00,24.0,18.0,30.35,NW,320,0.0,-999.0,79,-99.99,,,-99.99,,2013-04-23 06:42:00,
2013-04-23 01:52:00,23.0,17.0,30.35,NW,320,0.0,-999.0,79,-99.99,,,-99.99,,2013-04-23 06:52:00,
2013-04-23 02:02:00,23.0,17.0,30.35,NW,320,0.0,-999.0,79,-99.99,,,-99.99,,2013-04-23 07:02:00,
2013-04-23 02:11:00,23.0,17.0,30.35,NW,320,0.0,-999.0,79,-99.99,,,-99.99,,2013-04-23 07:11:00,
2013-04-23 02:21:00,24.0,18.0,30.34,NW,320,0.0,-999.0,79,-99.99,,,-99.99,,2013-04-23 07:21:00,
2013-04-23 02:32:00,24.0,18.0,30.33,NW,320,0.0,-999.0,79,-99.99,,,-99.99,,2013-04-23 07:32:00,
2013-04-23 02:42:00,24.0,18.0,30.33,NW,320,0.0,-999.0,79,-99.99,,,-99.99,,2013-04-23 07:42:00,
2013-04-23 02:52:00,25.0,19.0,30.32,NW,320,0.0,-999.0,78,-99.99,,,-99.99,,2013-04-23 07:52:00,
2013-04-23 03:02:00,25.0,19.0,30.31,NW,320,0.0,-999.0,78,-99.99,,,-99.99,,2013-04-23 08:02:00,
2013-04-23 03:11:00,25.0,19.0,30.31,NW,320,0.0,-999.0,78,-99.99,,,-99.99,,2013-04-23 08:11:00,
2013-04-23 03:21:00,26.0,20.0,30.31,WNW,286,2.0,-999.0,77,-99.99,,,-99.99,,2013-04-23 08:21:00,
2013-04-23 03:31:00,26.0,20.0,30.30,WNW,283,1.0,-999.0,77,-99.99,,,-99.99,,2013-04-23 08:31:00,
2013-04-23 03:42:00,26.0,20.0,30.30,WNW,283,1.0,-999.0,77,-99.99,,,-99.99,,2013-04-23 08:42:00,
2013-04-23 03:52:00,25.0,19.0,30.29,WNW,283,0.0,-999.0,76,-99.99,,,-99.99,,2013-04-23 08:52:00,
2013-04-23 04:01:00,25.0,19.0,30.29,WNW,283,0.0,-999.0,78,-99.99,,,-99.99,,2013-04-23 09:01:00,
2013-04-23 04:11:00,25.0,19.0,30.29,WNW,283,0.0,-999.0,78,-99.99,,,-99.99,,2013-04-23 09:11:00,
2013-04-23 04:21:00,25.0,19.0,30.28,WNW,283,0.0,-999.0,79,-99.99,,,-99.99,,2013-04-23 09:21:00,
2013-04-23 04:33:00,25.0,20.0,30.28,WNW,283,0.0,-999.0,80,-99.99,,,-99.99,,2013-04-23 09:33:00,
2013-04-23 04:43:00,25.0,20.0,30.28,WNW,283,0.0,-999.0,80,-99.99,,,-99.99,,2013-04-23 09:43:00,
2013-04-23 04:53:00,26.0,20.0,30.27,West,275,4.0,-999.0,78,-99.99,,,-99.99,,2013-04-23 09:53:00,
2013-04-23 05:02:00,27.0,20.0,30.27,West,272,7.0,-999.0,75,-99.99,,,-99.99,,2013-04-23 10:02:00,
2013-04-23 05:13:00,27.0,20.0,30.27,West,272,7.0,-999.0,75,-99.99,,,-99.99,,2013-04-23 10:13:00,
2013-04-23 05:22:00,28.0,21.0,30.26,West,272,8.0,-999.0,75,-99.99,,,-99.99,,2013-04-23 10:22:00,
2013-04-23 05:33:00,28.0,21.0,30.25,West,273,7.0,-999.0,74,-99.99,,,-99.99,,2013-04-23 10:33:00,
2013-04-23 05:42:00,28.0,21.0,30.25,West,273,7.0,-999.0,74,-99.99,,,-99.99,,2013-04-23 10:42:00,
2013-04-23 05:52:00,27.0,20.0,30.25,West,273,6.0,-999.0,76,-99.99,,,-99.99,,2013-04-23 10:52:00,
2013-04-23 06:02:00,27.0,21.0,30.24,West,272,6.0,-999.0,77,-99.99,,,-99.99,,2013-04-23 11:02:00,
2013-04-23 06:12:00,27.0,21.0,30.24,West,272,6.0,-999.0,77,-99.99,,,-99.99,,2013-04-23 11:12:00,
2013-04-23 06:21:00,28.0,22.0,30.24,West,272,7.0,-999.0,77,-99.99,,,-99.99,,2013-04-23 11:21:00,
2013-04-23 06:32:00,28.0,22.0,30.23,West,271,5.0,-999.0,77,-99.99,,,-99.99,,2013-04-23 11:32:00,
2013-04-23 06:42:00,28.0,22.0,30.23,West,271,5.0,-999.0,77,-99.99,,,-99.99,,2013-04-23 11:42:00,
2013-04-23 06:53:00,27.0,21.0,30.23,West,273,7.0,-999.0,77,-99.99,,,-99.99,,2013-04-23 11:53:00,
2013-04-23 07:02:00,27.0,21.0,30.22,West,272,6.0,-999.0,78,-99.99,,,-99.99,,2013-04-23 12:02:00,
2013-04-23 07:12:00,27.0,21.0,30.22,West,272,6.0,-999.0,78,-99.99,,,-99.99,,2013-04-23 12:12:00,
2013-04-23 07:22:00,28.0,22.0,30.22,West,261,9.0,-999.0,78,-99.99,,,-99.99,,2013-04-23 12:22:00,
2013-04-23 07:32:00,28.0,22.0,30.22,WSW,251,9.0,-999.0,77,-99.99,,,-99.99,,2013-04-23 12:32:00,
2013-04-23 07:41:00,28.0,22.0,30.22,WSW,251,9.0,-999.0,77,-99.99,,,-99.99,,2013-04-23 12:41:00,
2013-04-23 07:52:00,28.0,22.0,30.21,WSW,252,9.0,-999.0,77,-99.99,,,-99.99,,2013-04-23 12:52:00,
2013-04-23 08:01:00,29.0,23.0,30.20,WSW,247,8.0,-999.0,77,-99.99,,,-99.99,,2013-04-23 13:01:00,
2013-04-23 08:11:00,29.0,23.0,30.20,WSW,247,8.0,-999.0,77,-99.99,,,-99.99,,2013-04-23 13:11:00,
2013-04-23 08:21:00,30.0,23.0,30.21,WSW,250,9.0,-999.0,76,-99.99,,,-99.99,,2013-04-23 13:21:00,
2013-04-23 08:32:00,31.0,24.0,30.21,West,269,7.0,-999.0,75,-99.99,,,-99.99,,2013-04-23 13:32:00,
2013-04-23 08:41:00,31.0,24.0,30.21,West,269,7.0,-999.0,75,-99.99,,,-99.99,,2013-04-23 13:41:00,
2013-04-23 08:52:00,32.0,24.0,30.21,West,269,11.0,-999.0,72,-99.99,,,-99.99,,2013-04-23 13:52:00,
2013-04-23 09:01:00,34.0,25.0,30.21,West,275,13.0,-999.0,69,-99.99,,,-99.99,,2013-04-23 14:01:00,
2013-04-23 09:11:00,34.0,25.0,30.21,West,275,13.0,-999.0,69,-99.99,,,-99.99,,2013-04-23 14:11:00,
2013-04-23 09:22:00,34.0,25.0,30.21,West,279,12.0,-999.0,69,-99.99,,,-99.99,,2013-04-23 14:22:00,
2013-04-23 09:32:00,34.0,25.0,30.20,West,269,13.0,-999.0,68,-99.99,,,-99.99,,2013-04-23 14:32:00,
2013-04-23 09:42:00,34.0,25.0,30.20,West,269,13.0,-999.0,68,-99.99,,,-99.99,,2013-04-23 14:42:00,
2013-04-23 09:52:00,35.0,25.0,30.20,West,275,14.0,-999.0,67,-99.99,,,-99.99,,2013-04-23 14:52:00,
2013-04-23 10:01:00,35.0,25.0,30.20,West,275,14.0,-999.0,67,-99.99,,,-99.99,,2013-04-23 15:01:00,
2013-04-23 10:12:00,36.0,25.0,30.19,West,269,15.0,-999.0,65,-99.99,,,-99.99,,2013-04-23 15:12:00,
2013-04-23 10:21:00,37.0,25.0,30.19,WNW,288,15.0,-999.0,62,-99.99,,,-99.99,,2013-04-23 15:21:00,
2013-04-23 10:32:00,38.0,26.0,30.19,West,275,15.0,-999.0,62,-99.99,,,-99.99,,2013-04-23 15:32:00,
2013-04-23 10:42:00,38.0,26.0,30.19,West,275,15.0,-999.0,62,-99.99,,,-99.99,,2013-04-23 15:42:00,
2013-04-23 10:53:00,38.0,25.0,30.18,West,267,16.0,-999.0,59,-99.99,,,-99.99,,2013-04-23 15:53:00,
2013-04-23 11:03:00,39.0,25.0,30.18,WNW,284,14.0,-999.0,56,-99.99,,,-99.99,,2013-04-23 16:03:00,
2013-04-23 11:12:00,39.0,25.0,30.18,WNW,284,14.0,-999.0,56,-99.99,,,-99.99,,2013-04-23 16:12:00,
2013-04-23 11:23:00,40.0,26.0,30.17,West,266,14.0,-999.0,58,-99.99,,,-99.99,,2013-04-23 16:23:00,
2013-04-23 11:34:00,41.0,26.0,30.16,West,266,16.0,-999.0,54,-99.99,,,-99.99,,2013-04-23 16:34:00,
2013-04-23 11:43:00,41.0,26.0,30.16,West,266,16.0,-999.0,54,-99.99,,,-99.99,,2013-04-23 16:43:00,
2013-04-23 11:53:00,41.0,25.0,30.16,WNW,282,16.0,-999.0,52,-99.99,,,-99.99,,2013-04-23 16:53:00,
2013-04-23 12:02:00,42.0,25.0,30.15,West,265,16.0,-999.0,51,-99.99,,,-99.99,,2013-04-23 17:02:00,
2013-04-23 12:11:00,42.0,25.0,30.15,West,265,16.0,-999.0,51,-99.99,,,-99.99,,2013-04-23 17:11:00,
2013-04-23 12:22:00,43.0,26.0,30.15,West,269,14.0,-999.0,50,-99.99,,,-99.99,,2013-04-23 17:22:00,
2013-04-23 12:32:00,43.0,24.0,30.14,West,277,15.0,-999.0,47,-99.99,,,-99.99,,2013-04-23 17:32:00,
2013-04-23 12:42:00,43.0,24.0,30.14,West,277,15.0,-999.0,47,-99.99,,,-99.99,,2013-04-23 17:42:00,
2013-04-23 12:53:00,44.0,23.0,30.14,West,273,14.0,-999.0,44,-99.99,,,-99.99,,2013-04-23 17:53:00,
2013-04-23 13:02:00,44.0,24.0,30.13,West,267,14.0,-999.0,45,-99.99,,,-99.99,,2013-04-23 18:02:00,
2013-04-23 13:12:00,44.0,24.0,30.13,West,267,14.0,-999.0,45,-99.99,,,-99.99,,2013-04-23 18:12:00,
2013-04-23 13:22:00,45.0,23.0,30.13,West,267,13.0,-999.0,42,-99.99,,,-99.99,,2013-04-23 18:22:00,
2013-04-23 13:32:00,45.0,23.0,30.12,WNW,282,13.0,-999.0,42,-99.99,,,-99.99,,2013-04-23 18:32:00,
2013-04-23 13:42:00,45.0,23.0,30.12,WNW,282,13.0,-999.0,42,-99.99,,,-99.99,,2013-04-23 18:42:00,
2013-04-23 13:52:00,45.0,23.0,30.12,WNW,282,12.0,-999.0,42,-99.99,,,-99.99,,2013-04-23 18:52:00,
2013-04-23 14:02:00,46.0,23.0,30.14,West,274,12.0,-999.0,40,-99.99,,,-99.99,,2013-04-23 19:02:00,
2013-04-23 14:11:00,46.0,23.0,30.14,West,274,12.0,-999.0,40,-99.99,,,-99.99,,2013-04-23 19:11:00,
2013-04-23 14:22:00,46.0,23.0,30.12,West,261,12.0,-999.0,40,-99.99,,,-99.99,,2013-04-23 19:22:00,
2013-04-23 14:32:00,47.0,23.0,30.11,West,264,10.0,-999.0,39,-99.99,,,-99.99,,2013-04-23 19:32:00,
2013-04-23 14:42:00,47.0,23.0,30.11,West,264,10.0,-999.0,39,-99.99,,,-99.99,,2013-04-23 19:42:00,
2013-04-23 14:52:00,47.0,25.0,30.11,West,264,10.0,-999.0,41,-99.99,,,-99.99,,2013-04-23 19:52:00,
2013-04-23 15:01:00,48.0,24.0,30.10,WNW,283,10.0,-999.0,38,-99.99,,,-99.99,,2013-04-23 20:01:00,
2013-04-23 15:11:00,48.0,24.0,30.10,WNW,283,10.0,-999.0,38,-99.99,,,-99.99,,2013-04-23 20:11:00,
2013-04-23 15:22:00,48.0,22.0,30.09,West,260,8.0,-999.0,36,-99.99,,,-99.99,,2013-04-23 20:22:00,
2013-04-23 15:32:00,48.0,22.0,30.09,WSW,249,9.0,-999.0,35,-99.99,,,-99.99,,2013-04-23 20:32:00,
2013-04-23 15:42:00,48.0,22.0,30.09,WSW,249,9.0,-999.0,35,-99.99,,,-99.99,,2013-04-23 20:42:00,
2013-04-23 15:52:00,48.0,23.0,30.08,West,272,10.0,-999.0,37,-99.99,,,-99.99,,2013-04-23 20:52:00,
2013-04-23 16:01:00,48.0,22.0,30.07,SW,236,8.0,-999.0,36,-99.99,,,-99.99,,2013-04-23 21:01:00,
2013-04-23 16:12:00,48.0,22.0,30.07,SW,236,8.0,-999.0,36,-99.99,,,-99.99,,2013-04-23 21:12:00,
2013-04-23 16:21:00,48.0,22.0,30.07,WSW,254,10.0,-999.0,36,-99.99,,,-99.99,,2013-04-23 21:21:00,
2013-04-23 16:33:00,48.0,22.0,30.06,WSW,252,7.0,-999.0,36,-99.99,,,-99.99,,2013-04-23 21:33:00,
2013-04-23 16:43:00,48.0,22.0,30.06,WSW,252,7.0,-999.0,36,-99.99,,,-99.99,,2013-04-23 21:43:00,
2013-04-23 16:52:00,48.0,22.0,30.05,West,270,6.0,-999.0,36,-99.99,,,-99.99,,2013-04-23 21:52:00,
2013-04-23 17:03:00,47.0,23.0,30.05,West,269,5.0,-999.0,38,-99.99,,,-99.99,,2013-04-23 22:03:00,
2013-04-23 17:12:00,47.0,23.0,30.05,West,269,5.0,-999.0,38,-99.99,,,-99.99,,2013-04-23 22:12:00,
2013-04-23 17:22:00,47.0,22.0,30.05,NW,317,3.0,-999.0,37,-99.99,,,-99.99,,2013-04-23 22:22:00,
2013-04-23 17:33:00,48.0,22.0,30.05,NW,304,5.0,-999.0,36,-99.99,,,-99.99,,2013-04-23 22:33:00,
2013-04-23 17:42:00,48.0,22.0,30.05,NW,304,5.0,-999.0,36,-99.99,,,-99.99,,2013-04-23 22:42:00,
2013-04-23 17:52:00,48.0,22.0,30.04,WNW,300,11.0,-999.0,36,-99.99,,,-99.99,,2013-04-23 22:52:00,
2013-04-23 18:03:00,49.0,22.0,30.03,NNW,340,6.0,-999.0,34,-99.99,,,-99.99,,2013-04-23 23:03:00,
2013-04-23 18:12:00,49.0,22.0,30.03,NNW,340,6.0,-999.0,34,-99.99,,,-99.99,,2013-04-23 23:12:00,
2013-04-23 18:22:00,49.0,23.0,30.03,West,273,5.0,-999.0,36,-99.99,,,-99.99,,2013-04-23 23:22:00,
2013-04-23 18:32:00,49.0,23.0,30.03,NW,313,8.0,-999.0,36,-99.99,,,-99.99,,2013-04-23 23:32:00,
2013-04-23 18:42:00,49.0,23.0,30.03,NW,313,8.0,-999.0,36,-99.99,,,-99.99,,2013-04-23 23:42:00,
2013-04-23 18:52:00,48.0,24.0,30.03,NW,319,8.0,-999.0,39,-99.99,,,-99.99,,2013-04-23 23:52:00,
2013-04-23 19:01:00,47.0,24.0,30.02,NW,315,6.0,-999.0,40,-99.99,,,-99.99,,2013-04-24 00:01:00,
2013-04-23 19:11:00,47.0,24.0,30.02,NW,315,6.0,-999.0,40,-99.99,,,-99.99,,2013-04-24 00:11:00,
2013-04-23 19:22:00,46.0,25.0,30.02,NW,316,9.0,-999.0,43,-99.99,,,-99.99,,2013-04-24 00:22:00,
2013-04-23 19:32:00,44.0,27.0,30.03,NW,317,14.0,-999.0,51,-99.99,,,-99.99,,2013-04-24 00:32:00,
2013-04-23 19:41:00,44.0,27.0,30.03,NW,317,14.0,-999.0,51,-99.99,,,-99.99,,2013-04-24 00:41:00,
2013-04-23 19:52:00,43.0,28.0,30.04,NW,315,11.0,-999.0,56,-99.99,,,-99.99,,2013-04-24 00:52:00,
2013-04-23 20:01:00,42.0,30.0,30.04,NNW,331,8.0,-999.0,61,-99.99,,,-99.99,,2013-04-24 01:01:00,
2013-04-23 20:11:00,42.0,30.0,30.04,NNW,331,8.0,-999.0,61,-99.99,,,-99.99,,2013-04-24 01:11:00,
2013-04-23 20:21:00,41.0,32.0,30.03,North,350,11.0,-999.0,69,-99.99,,,-99.99,,2013-04-24 01:21:00,
2013-04-23 20:32:00,39.0,32.0,30.03,North,355,11.0,-999.0,76,-99.99,,,-99.99,,2013-04-24 01:32:00,
2013-04-23 20:42:00,39.0,32.0,30.03,North,355,11.0,-999.0,76,-99.99,,,-99.99,,2013-04-24 01:42:00,
2013-04-23 20:52:00,38.0,33.0,30.03,North,5,10.0,-999.0,81,-99.99,,,-99.99,,2013-04-24 01:52:00,
2013-04-23 21:02:00,37.0,33.0,30.03,NNE,18,7.0,-999.0,84,-99.99,,,-99.99,,2013-04-24 02:02:00,
2013-04-23 21:16:00,37.0,33.0,30.03,NNE,18,7.0,-999.0,84,-99.99,,,-99.99,,2013-04-24 02:16:00,
2013-04-23 21:28:00,37.0,33.0,30.04,NNE,17,3.0,-999.0,85,-99.99,,,-99.99,,2013-04-24 02:28:00,
2013-04-23 21:37:00,37.0,33.0,30.04,NNE,17,3.0,-999.0,85,-99.99,,,-99.99,,2013-04-24 02:37:00,
2013-04-23 21:46:00,37.0,33.0,30.04,NNE,17,3.0,-999.0,85,-99.99,,,-99.99,,2013-04-24 02:46:00,
2013-04-23 21:59:00,36.0,33.0,30.04,NNE,14,1.0,-999.0,87,-99.99,,,-99.99,,2013-04-24 02:59:00,
2013-04-23 22:07:00,36.0,33.0,30.05,NNE,14,0.0,-999.0,87,-99.99,,,-99.99,,2013-04-24 03:07:00,
2013-04-23 22:39:00,34.0,31.0,30.05,NNE,14,0.0,-999.0,89,-99.99,,,-99.99,,2013-04-24 03:39:00,
2013-04-23 22:49:00,34.0,31.0,30.05,NNE,14,0.0,-999.0,89,-99.99,,,-99.99,,2013-04-24 03:49:00,
2013-04-23 23:01:00,33.0,30.0,30.05,NNE,14,0.0,-999.0,90,-99.99,,,-99.99,,2013-04-24 04:01:00,
2013-04-23 23:03:00,33.0,30.0,30.05,NNE,14,0.0,-999.0,90,-99.99,,,-99.99,,2013-04-24 04:03:00,
2013-04-23 23:12:00,33.0,30.0,30.05,NNE,14,0.0,-999.0,90,-99.99,,,-99.99,,2013-04-24 04:12:00,
2013-04-23 23:23:00,32.0,29.0,30.04,NNE,14,0.0,-999.0,90,-99.99,,,-99.99,,2013-04-24 04:23:00,
2013-04-23 23:33:00,31.0,28.0,30.04,NNE,14,0.0,-999.0,90,-99.99,,,-99.99,,2013-04-24 04:33:00,
2013-04-23 23:43:00,31.0,28.0,30.04,NNE,14,0.0,-999.0,90,-99.99,,,-99.99,,2013-04-24 04:43:00,
2013-04-23 23:53:00,31.0,29.0,30.03,NNE,14,0.0,-999.0,91,-99.99,,,-99.99,,2013-04-24 04:53:00,